Tracking 30970 objects as of 3-Jul-2025
HD Live streaming from Space Station
objects crossing your sky now

COSMOS 2251 DEB

Track COSMOS 2251 DEB now!
10-day predictions


NORAD ID: 35771
Int'l Code: 1993-036ARR
Perigee: 704.8 km
Apogee: 1,031.1 km
Inclination: 74.2 °
Period: 102.2 minutes
Semi major axis: 7238 km
RCS: 0.0095 m2 (small)
Launch date: June 16, 1993
Source: Commonwealth of Independent States (former USSR) (CIS)
Launch site: PLESETSK MISSILE AND SPACE COMPLEX (PKMTR)

Note: This is SATELLITE DEBRIS
Your satellite tracking list
STARLINK-1738
Track 1 satellite(s)




NASA's NSSDC Master Catalog

Two Line Element Set (TLE):
1 35771U 93036ARR 25181.16745955  .00005711  00000-0  25877-2 0  9998
2 35771  74.1665 240.1657 0225407 222.7577 135.5838 14.09578156805250
Source of the keplerian elements: AFSPC